[[{"header":{"parameterUnit":"m.s-1","parameterCategory":1,"la1":30.2991,"la2":30.254,"lo1":-89.0895,"lo2":-89.0444,"dy":0.0017,"dx":0.0017,"nx":28,"ny":28,"refTime":"2025-06-20T09:00:00:Z","depth":0,"parameterNumber":2,"parameterNumberName":"U-component_of_WINDS"},"data":[0,0,0,0,0,0,0,0,0,0,0,0,0,0,0,0,0,0,0,0,0,0,0,0,0,0,0,0,0,0,0,0,0,0,0,0,0,0,0,0,0,0,0,0,0,0,0,0,0,0,0,0,0,0,0,0,0,0,1.0597,1.0597,0,1.0637,1.0637,1.0638,1.0634,1.0634,1.0633,1.0632,1.0672,1.0674,1.0675,0,0,0,0,0,0,0,0,0,0,0,0,0,1.0517,1.0518,1.0597,1.0597,1.0598,1.0637,1.0637,1.0638,1.0634,1.0634,1.0633,1.0632,1.0671,1.0673,1.0675,0,0,0,0,0,0,0,0,0,0,0,0,0,1.0554,1.0519,1.0597,1.0601,1.0602,1.0636,1.0637,1.0638,1.0634,1.0634,1.0633,1.0632,1.0671,1.0673,1.0676,1.0709,0,0,1.0683,1.0684,0,0,0,0,0,0,0,0,1.0552,1.0557,1.06,1.0601,1.0601,1.063,1.0623,1.0661,1.0635,1.0622,1.0632,1.0631,1.0659,1.0662,1.0671,1.071,1.0712,1.0683,1.0685,1.0686,1.0686,0,0,0,0,0,0,0,1.0549,1.0555,1.0612,1.06,1.0601,1.06,1.0605,1.0631,1.0645,1.0623,1.0623,1.0628,1.0659,1.0669,1.0672,1.0713,1.0683,1.0685,1.0687,1.0688,1.0782,1.0783,0,0,0,0,0,0,1.0546,1.0553,1.0611,1.0614,1.0574,1.0603,1.0607,1.0621,1.0644,1.0647,1.0628,1.0627,1.0665,1.0669,1.0674,1.0714,1.0686,1.0688,1.0689,1.0781,1.0782,1.0783,0,0,0,0,0,0,1.0544,1.0551,1.061,1.0583,1.0591,1.0605,1.0621,1.0623,1.0633,1.0649,1.0651,1.0636,1.0665,1.067,1.07,1.0716,1.0689,1.0691,1.0779,1.0781,1.0782,1.0796,0,0,0,0,0,0,1.0542,1.055,1.0563,1.0584,1.0592,1.0636,1.0622,1.0624,1.0637,1.0636,1.0657,1.0659,1.0664,1.0697,1.0703,1.0718,1.0693,1.0778,1.078,1.0782,1.0794,1.0797,1.0801,0,0,0,0,0,1.0539,1.0565,1.0564,1.0571,1.0608,1.0637,1.0641,1.0648,1.0638,1.0651,1.0662,1.0658,1.0713,1.07,1.0706,1.0723,1.0777,1.0779,1.0782,1.0792,1.0797,1.08,0,0,0,0,0,0,1.0545,1.0568,1.0567,1.06,1.0617,1.0636,1.0653,1.0652,1.0671,1.0669,1.0675,1.068,1.071,1.072,1.0705,1.0757,1.0744,1.0748,1.075,1.0754,1.0757,1.0754,1.0695,0,0,0,0,0,1.0551,1.0572,1.059,1.0618,1.0626,1.0638,1.0651,1.0654,1.0671,1.0678,1.069,1.0707,1.0728,1.0741,1.0761,1.0795,1.08,1.081,1.0813,1.0816,1.0819,1.0839,1.0844,1.0791,1.0791,1.0791,0,0,1.0562,1.0577,1.059,1.062,1.0633,1.0655,1.0644,1.0667,1.0684,1.0681,1.0711,1.072,1.0739,1.0771,1.0786,1.078,1.0835,1.0819,1.0821,1.0823,1.0842,1.0847,1.0851,1.0792,1.0792,1.0792,0,0,1.0594,1.0607,1.0632,1.0646,1.0666,1.0674,1.068,1.0699,1.0706,1.0736,1.0734,1.0754,1.0789,1.0803,1.0815,1.0852,1.085,1.0859,1.0876,1.0895,1.0899,1.0903,1.0917,1.0921,1.0862,1.0862,1.0862,0,1.0605,1.0639,1.0645,1.0669,1.0682,1.0682,1.0707,1.072,1.0745,1.0754,1.0747,1.0793,1.0805,1.0841,1.085,1.0859,1.0867,1.0856,1.0898,1.0902,1.0905,1.0919,1.0924,1.0863,1.0863,1.0863,1.0862,0,1.0652,1.0675,1.0692,1.0718,1.0733,1.0758,1.0768,1.0782,1.0784,1.0793,1.0823,1.0838,1.0862,1.087,1.0872,1.0907,1.0902,1.0897,1.0884,1.0911,1.0924,1.0929,1.0864,1.0864,1.0863,1.0863,0,0,1.0689,1.0718,1.0724,1.0736,1.0759,1.0777,1.0801,1.0825,1.0837,1.0855,1.0876,1.0906,1.0901,1.0914,1.0918,1.0934,1.0964,1.0927,1.0927,1.0933,1.1003,1.1008,1.1014,1.0963,1.0964,1.0964,1.1002,0,1.0723,1.0767,1.0774,1.0813,1.0834,1.0834,1.0856,1.0872,1.088,1.09,1.0909,1.0931,1.0922,1.093,1.0946,1.0957,1.0978,1.0954,1.0982,1.0983,1.0978,1.102,1.1025,1.106,1.1007,1.1008,1.1008,0,1.0769,1.0789,1.083,1.0851,1.086,1.0879,1.0901,1.092,1.0938,1.0943,1.0958,1.096,1.0986,1.0971,1.1007,1.099,1.1002,1.1009,1.101,1.1014,1.0998,1.1025,1.1071,1.1076,1.1016,1.1016,1.1015,0,1.0793,1.083,1.0859,1.0869,1.0893,1.0907,1.0918,1.0935,1.0949,1.0968,1.0978,1.0999,1.1011,1.1028,1.1036,1.1025,1.1071,1.1057,1.1076,1.1076,1.1086,1.1085,1.1135,1.1093,1.1092,1.1092,1.1092,0,1.0831,1.0856,1.087,1.0888,1.0917,1.0924,1.0952,1.0962,1.0978,1.0998,1.0999,1.1017,1.1026,1.1046,1.1052,1.1081,1.1086,1.1091,1.1092,1.1091,1.1091,1.1099,1.1097,1.1094,1.1093,1.1093,1.1093,0,1.0862,1.0873,1.0905,1.0925,1.0931,1.0951,1.0969,1.0986,1.0995,1.102,1.1027,1.104,1.1064,1.1073,1.1102,1.1106,1.1139,1.1138,1.1133,1.1134,1.1152,1.115,1.1209,1.1218,1.117,1.117,1.117,0,1.0886,1.0906,1.0929,1.0942,1.0954,1.0976,1.099,1.0998,1.1013,1.1036,1.1051,1.1074,1.1094,1.1132,1.1144,1.1166,1.1166,1.1185,1.117,1.1168,1.1167,1.1166,1.1168,1.1188,1.1189,1.1189,1.119,0,1.0928,1.0932,1.0953,1.0976,1.0993,1.1011,1.1029,1.104,1.1051,1.1068,1.1092,1.1108,1.1137,1.1161,1.1184,1.1195,1.1194,1.1195,1.12,1.1199,1.1196,1.1199,1.1142,1.1193,1.1193,1.1193,1.1192,1.1192,1.0956,1.0974,1.0993,1.1016,1.1031,1.1047,1.1065,1.1076,1.1097,1.1123,1.1126,1.1152,1.1171,1.1201,1.1213,1.1234,1.1229,1.1237,1.1239,1.1241,1.1242,1.1192,1.1238,1.1238,1.1238,1.1238,1.1238,0,1.0998,1.1011,1.1032,1.1057,1.1076,1.1074,1.1094,1.1109,1.1133,1.115,1.117,1.1198,1.1221,1.1235,1.1259,1.1273,1.1273,1.1279,1.1278,1.128,1.1245,1.1239,1.1278,1.1278,1.1278,1.1278,1.1278,1.1278,1.1022,1.1052,1.1059,1.1096,1.1108,1.1135,1.1146,1.1162,1.1176,1.1208,1.1227,1.1236,1.1252,1.1277,1.1298,1.1302,1.1311,1.1317,1.132,1.1287,1.1283,1.1279,1.1272,1.1318,1.1318,1.1353,1.1354,1.1354]},{"header":{"parameterUnit":"m.s-1","parameterCategory":1,"la1":30.2991,"la2":30.254,"lo1":-89.0895,"lo2":-89.0444,"dy":0.0017,"dx":0.0017,"nx":28,"ny":28,"refTime":"2025-06-20T09:00:00:Z","depth":0,"parameterNumber":3,"parameterNumberName":"V-component_of_WINDS"},"data":[0,0,0,0,0,0,0,0,0,0,0,0,0,0,0,0,0,0,0,0,0,0,0,0,0,0,0,0,0,0,0,0,0,0,0,0,0,0,0,0,0,0,0,0,0,0,0,0,0,0,0,0,0,0,0,0,0,0,-0.9357,-0.9357,0,-0.9321,-0.9321,-0.932,-0.9289,-0.9289,-0.9289,-0.9288,-0.9249,-0.9248,-0.9248,0,0,0,0,0,0,0,0,0,0,0,0,0,-0.9399,-0.9398,-0.9357,-0.9357,-0.9356,-0.9321,-0.9321,-0.932,-0.9289,-0.9289,-0.9289,-0.9288,-0.9249,-0.9248,-0.9248,0,0,0,0,0,0,0,0,0,0,0,0,0,-0.9373,-0.9398,-0.9357,-0.9337,-0.9335,-0.9321,-0.9321,-0.932,-0.929,-0.9289,-0.9289,-0.9288,-0.925,-0.9248,-0.9247,-0.9251,0,0,-0.9244,-0.9244,0,0,0,0,0,0,0,0,-0.9375,-0.9372,-0.934,-0.9338,-0.9336,-0.9309,-0.9321,-0.9297,-0.929,-0.9307,-0.9288,-0.9288,-0.9269,-0.9267,-0.9261,-0.9249,-0.9247,-0.9244,-0.9243,-0.9243,-0.9242,0,0,0,0,0,0,0,-0.9377,-0.9373,-0.9343,-0.934,-0.9337,-0.9329,-0.9325,-0.9316,-0.9291,-0.9305,-0.9303,-0.9299,-0.9268,-0.9262,-0.926,-0.9247,-0.9244,-0.9243,-0.9242,-0.9242,-0.9238,-0.9238,0,0,0,0,0,0,-0.9382,-0.9375,-0.9344,-0.9342,-0.9355,-0.9329,-0.9324,-0.9318,-0.9291,-0.9287,-0.93,-0.9298,-0.9264,-0.9261,-0.9258,-0.9262,-0.9243,-0.9242,-0.9241,-0.9237,-0.9238,-0.9238,0,0,0,0,0,0,-0.9383,-0.9379,-0.9346,-0.9358,-0.9353,-0.9329,-0.9322,-0.9318,-0.9312,-0.9287,-0.9282,-0.9298,-0.9264,-0.926,-0.9253,-0.926,-0.9241,-0.924,-0.9236,-0.9237,-0.9238,-0.9268,0,0,0,0,0,0,-0.9384,-0.938,-0.9381,-0.9358,-0.9352,-0.9342,-0.9323,-0.9318,-0.931,-0.9308,-0.9284,-0.928,-0.9263,-0.9255,-0.9252,-0.9258,-0.9239,-0.9236,-0.9237,-0.9238,-0.9266,-0.927,-0.9272,0,0,0,0,0,-0.9386,-0.939,-0.9381,-0.9378,-0.9353,-0.9342,-0.9339,-0.932,-0.9311,-0.9312,-0.9296,-0.9281,-0.926,-0.9255,-0.9251,-0.9257,-0.9235,-0.9236,-0.9238,-0.9265,-0.9269,-0.9272,0,0,0,0,0,0,-0.9413,-0.9386,-0.9376,-0.9373,-0.9361,-0.9337,-0.9337,-0.9324,-0.9313,-0.9311,-0.9287,-0.9282,-0.9279,-0.9267,-0.9262,-0.9259,-0.9245,-0.9246,-0.9267,-0.9271,-0.9274,-0.9277,-0.9238,0,0,0,0,0,-0.9419,-0.9412,-0.9389,-0.9389,-0.9383,-0.9362,-0.9356,-0.9343,-0.9328,-0.9322,-0.9305,-0.9291,-0.9282,-0.9276,-0.9265,-0.9264,-0.926,-0.9266,-0.927,-0.9272,-0.9273,-0.9274,-0.9277,-0.9242,-0.9242,-0.9242,0,0,-0.943,-0.9415,-0.9412,-0.9394,-0.9382,-0.9376,-0.9357,-0.9351,-0.9346,-0.932,-0.9314,-0.9302,-0.9285,-0.9282,-0.928,-0.9272,-0.9282,-0.9274,-0.9276,-0.9276,-0.9275,-0.9279,-0.9282,-0.9243,-0.9243,-0.9243,0,0,-0.9448,-0.9436,-0.9435,-0.9424,-0.9407,-0.9393,-0.9393,-0.9372,-0.9364,-0.9357,-0.9338,-0.9332,-0.9316,-0.9305,-0.9297,-0.9313,-0.9299,-0.9311,-0.9327,-0.9328,-0.933,-0.9333,-0.934,-0.9342,-0.9311,-0.9311,-0.9312,0,-0.9464,-0.9455,-0.9435,-0.9431,-0.9424,-0.9403,-0.9402,-0.9392,-0.9372,-0.9368,-0.936,-0.934,-0.9327,-0.9322,-0.9326,-0.932,-0.932,-0.9313,-0.9332,-0.9334,-0.9336,-0.9342,-0.9345,-0.9313,-0.9313,-0.9313,-0.9313,0,-0.9476,-0.947,-0.9471,-0.9454,-0.9447,-0.9445,-0.9425,-0.9421,-0.9409,-0.9396,-0.939,-0.9374,-0.9361,-0.9358,-0.9345,-0.9352,-0.9348,-0.9336,-0.9322,-0.9341,-0.9347,-0.9349,-0.9315,-0.9315,-0.9314,-0.9314,0,0,-0.9508,-0.9483,-0.9484,-0.9477,-0.9458,-0.9452,-0.9449,-0.9438,-0.9435,-0.9422,-0.942,-0.9407,-0.9397,-0.9388,-0.9374,-0.9375,-0.9391,-0.9363,-0.9362,-0.937,-0.9399,-0.9408,-0.9411,-0.9381,-0.9382,-0.9382,-0.94,0,-0.9524,-0.9518,-0.9501,-0.95,-0.9495,-0.9475,-0.9473,-0.9461,-0.9449,-0.9443,-0.943,-0.9422,-0.9408,-0.9403,-0.9403,-0.9389,-0.9396,-0.9387,-0.9379,-0.9379,-0.9384,-0.9414,-0.9423,-0.9441,-0.9402,-0.9403,-0.9403,0,-0.954,-0.9531,-0.953,-0.9513,-0.951,-0.9509,-0.9498,-0.9492,-0.9478,-0.947,-0.9462,-0.9447,-0.9443,-0.943,-0.9425,-0.9419,-0.9415,-0.9408,-0.9408,-0.9406,-0.9392,-0.9414,-0.9447,-0.945,-0.9406,-0.9406,-0.9406,0,-0.9566,-0.9553,-0.9551,-0.9545,-0.9525,-0.9525,-0.9516,-0.9502,-0.9497,-0.9487,-0.9484,-0.9474,-0.9468,-0.946,-0.9444,-0.9435,-0.9441,-0.9426,-0.9434,-0.9435,-0.9436,-0.9436,-0.9469,-0.9432,-0.9432,-0.9432,-0.9432,0,-0.9585,-0.9585,-0.9562,-0.9561,-0.9561,-0.9543,-0.9544,-0.9533,-0.9522,-0.9518,-0.95,-0.9497,-0.9475,-0.947,-0.9457,-0.9455,-0.9453,-0.9446,-0.9443,-0.9448,-0.9449,-0.9445,-0.9443,-0.9433,-0.9433,-0.9433,-0.9433,0,-0.9612,-0.9597,-0.9594,-0.9576,-0.9572,-0.9573,-0.9558,-0.9556,-0.9544,-0.954,-0.9538,-0.9519,-0.9513,-0.9496,-0.9484,-0.9475,-0.9477,-0.947,-0.9482,-0.948,-0.949,-0.949,-0.9522,-0.9525,-0.9486,-0.9486,-0.9487,0,-0.9626,-0.9626,-0.9609,-0.9606,-0.9599,-0.9594,-0.9589,-0.9571,-0.9567,-0.9553,-0.9554,-0.9546,-0.9538,-0.9529,-0.9514,-0.9505,-0.9499,-0.9511,-0.9497,-0.9503,-0.95,-0.95,-0.9501,-0.9513,-0.9514,-0.9514,-0.9515,0,-0.9651,-0.9644,-0.9638,-0.9631,-0.9626,-0.9618,-0.961,-0.9608,-0.9588,-0.9585,-0.9578,-0.9573,-0.9562,-0.9555,-0.9545,-0.9536,-0.9522,-0.9519,-0.9521,-0.9526,-0.9534,-0.9531,-0.9491,-0.9518,-0.9518,-0.9518,-0.9518,-0.9517,-0.9673,-0.9673,-0.9661,-0.9656,-0.9648,-0.9641,-0.9639,-0.9628,-0.9623,-0.9614,-0.9603,-0.9599,-0.9587,-0.9572,-0.9564,-0.956,-0.9553,-0.9555,-0.9556,-0.9557,-0.956,-0.9535,-0.9558,-0.9558,-0.9558,-0.9558,-0.9558,0,-0.9698,-0.969,-0.9686,-0.9675,-0.9672,-0.966,-0.9651,-0.9648,-0.9645,-0.9635,-0.963,-0.9623,-0.9617,-0.9602,-0.9595,-0.9595,-0.9588,-0.9593,-0.9593,-0.9592,-0.9566,-0.9566,-0.9598,-0.9598,-0.9598,-0.9598,-0.9598,-0.9598,-0.9711,-0.9711,-0.9703,-0.9699,-0.9691,-0.9687,-0.9683,-0.9677,-0.967,-0.9664,-0.9659,-0.965,-0.9639,-0.9631,-0.9625,-0.9621,-0.9619,-0.9627,-0.9621,-0.9597,-0.9593,-0.9589,-0.9589,-0.9626,-0.9626,-0.9646,-0.9647,-0.9647]}]]